Погода в Магнитогорске

Погода в Магнитогорске : погода сейчас, прогноз погоды и архив. Всё, что Вы хотите узнать о погоде в Магнитогорске!

Хотите узнать прогноз погоды в Магнитогорске? Тогда Вам сюда: Погода в Магнитогорске

Поиск расширенной информации на нашем сайте:

Полезная информация:

Другие новости

Новости СМИ2

Главная страница сайта

Новости сайта

03.07.2017

Напоминаем, что на нашем специализированном сайте Метеоцентр.Азия вы можете получить высокодетализированные автоматические прогнозы погоды по пунктам России, СНГ и мира в авиационном формате (включающие направление и скорость ветра, видимость, явления погоды, количество и форму облачности, нижнюю и верхнюю границу облачности).

Рекомендуем:

Погода в Магнитогорске - сегодня

Время (UTC), дата Ветер
(°,м/с) 
Видим.   Явления Облачность Т
(°С)
Тd
(°С)
f(%) Тe
(°С)
Pmin
(гПа)
dP
(гПа)
Po
(мм)
O2
(г/м3)
Тmin Tmax R s Состояние
почвы
12 15.07.19 220 (ЮЗ) 6-15{17}  20000 м    6/6 600 м 
[Cu hum]
+26 +10.1 37 +28  997.8  1.6  716  262           
15 15.07.19 250 (З) 6-10{16}  20000 м    3/3 600 м 
[Sc]
+19.3 +9.6 53 +20  1001.9  719  269    +32.3       
18 15.07.19 240 (ЮЗ) 8-13{15}  10 км    8/8 600 м 
[Sc]
+16.4 +9 62 +17  1003.6  1.2  720  272           
21 15.07.19 260 (З) 5-10{13}  10 км    9/9 600 м 
[Sc]
+16.1 +8.7 61 +16  1004.5  0.8  720  272           
00 16.07.19 270 (З) 5-10{13}  20000 м    ясно 
+14.9 +8 63 +14  1006.3  1.5  721  274           
03 16.07.19 260 (З) 5{10}  20000 м    ясно 
+17.9 +8.5 54 +18  1007.3  1.4  722  272  +14.5        сухая 
06 16.07.19 270 (З) 5-10{13}  20000 м    3/0 средняя 
[Ac trans]
+22 +7.7 40 +22  1007.4  0.7  723  268           
09 16.07.19 310 (СЗ) 4-10{13}  20000 м    ясно 
+25.6 +5.6 28 +26  1008.4  1.4  724  266           
12 16.07.19 280 (З) 4{12}  20000 м    ясно 
+25.9 +6.7 29 +26  1009.6  1.2  725  266           
15 16.07.19 280 (З) 20000 м    3/0 верхняя 
[Ci fib]
+23.8 +7.5 35 +24  1010.8  0.8  726  268    +26.5       
18 16.07.19 320 (СЗ) 20000 м    3/0 верхняя 
[Ci fib]
+19.8 +8.5 48 +21  1012.9  1.5  727  272           
21 16.07.19 030 (СВ) 10 км    3/0 верхняя 
[Ci fib]
+14.1 +8.5 69 +15  1014.7  0.8  727  277           
00 17.07.19 340 (С) 20000 м    ясно 
+10.8 +8.9 88 +12  1016.5  1.2  728  281           
03 17.07.19 тихо ()   20000 м    6/0 средняя 
[Ac cast]
+18.8 +11.4 62 +22  1015.6  0.4  729  272  +10.5        сухая 
06 17.07.19 100 (В) 20000 м    10/10 600 м 
[Sc]
+19.9 +11.2 57 +24  1015.5  729  272           
09 17.07.19 170 (Ю) 20000 м    6/0 средняя 
[Ac trans]
+24.6 +9.5 38 +26  1013.8  -0.9  728  267           
12 17.07.19 240 (ЮЗ) 20000 м    6/0 средняя 
[Ac cast]
+25.5 +8 33 +26  1012.8  -0.8  727  267           
15 17.07.19 040 (СВ) 20000 м    8/8 600 м 
[Sc]
+22.1 +12.5 54 +27  1012.6  -0.6  727  268    +27.1       
18 17.07.19 360 (С) 10 км    10/10 600 м 
[Sc]
+19.8 +12.2 62 +26  1013.6  -0.6  727  271           
21 17.07.19 060 (СВ) 10 км  {ливн. осадки}  10/10 600 м кучево-дожд. 
[Cb cap]
+16.7 +13.2 80 +24  1013.5  -0.5  727  273           
00 18.07.19 020 (С) 20000 м  {ливн. осадки}  9/9 600 м кучево-дожд. 
[Cb cap]
+16.4 +12 75 +22  1013.4  -0.2  727  274           
03 18.07.19 080 (В) 20000 м    ясно 
+20.1 +13.4 65 +27  1012.3  -0.5  726  270  +15.9    0.4    влажная 
06 18.07.19 170 (Ю) 20000 м    ясно 
+26.2 +9.6 35 +27  1010.5  -0.9  726  265           
09 18.07.19 240 (ЮЗ) 20000 м    3/0 средняя 
[Ac cast]
+29.2 +8.5 27 +29  1009  -1.1  725  262           
12 18.07.19 270 (З) 20000 м    8/0 средняя 
[Ac cast]
+32.6 +4.9 18 +33  1006.8  -1.6  724  260           
Время (UTC), дата Ветер
(°,м/с) 
Видим.   Явления Облачность Т
(°С)
Тd
(°С)
f(%) Тe
(°С)
Pmin
(гПа)
dP
(гПа)
Po
(мм)
O2
(г/м3)
Тmin Tmax R s Состояние
почвы

Для получения пояснительной информации подведите курсор к названию столбца.

ПОГОДА в Магнитогорске - архив

Всё, что Вы хотите узнать о погоде в Магнитогорске - удобно и подробно!

Выберите нужную дату (начиная с 1 января 2018* года) и нажмите кнопку "Найти".
Будут отображены архивные сводки погоды по пункту Магнитогорск, начиная с указанной даты.


Отображать данные в формате CSV (для использования в таблицах Excel)


Внимание! Наш архив погоды предназначен исключительно для личного некоммерческого использования в познавательных целях. Если Вам необходимы официальные справки о состоянии погоды (для производственных, юридических, коммерческих и т.п. целей), обращайтесь в органы Росгидромета.

*Примечание: данная дата относится к архиву по метеостанциям СССР (Россия, СНГ, Балтия).
Архив по метеостанциям Зарубежной Европы и Азии (кроме Китая) хранится 10 дней, по другим регионам земного шара (Китай, Африка, Америка, Австралия, Океания) - 1 день.

Магнитогорск - район местоположения метеостанции


Название, широта, долгота, высота метеостанции:
Магнитогорск 53.3°ш. 59.1°д. 384 м над ур. моря [Российская Федерация]

Дополнительная информация

В oтличие oт бoльшинства пoгoдных сайтoв мы публикуем пoдрoбную метеoинфoрмацию в детальнoм прoфессиoнальнoм фoрмате.

Характеристики температуры и влажнoсти вoздуха измеряются на высoте 2 м в тени вдали oт зданий и деревьев.
Скoрoсть ветра измеряется на высoте 10 м (на урoвне рoста челoвека скoрoсть ветра ниже в 1.5-2 раза). Если метеoстанция нахoдится в гoрoде или в лесу, тo скoрoсть ветра занижена на 2-4 м/с пo сравнению с oткрытым местoм. Скoрoсть ветра над акватoриями крупных рек и oзёр, а также на вершинах хoлмoв на 2-5 м/с выше, чем в oбычных услoвиях.
Атмoсфернoе давление в разных тoчках местнoсти мoжет значительнo oтличаться oт давления на метеoстанции, в зависимoсти oт услoвий рельефа (при пoдъёме на 10 м давление пoнижается примернo на 1 мм рт.ст.).